Showing default

AISAT, 40054

Orbit data source: Space-Track

AISAT, 40054 is a payload satellite owned by DLR (DE) in SSO that was launched on Mon, 30 Jun 2014 UTC via a PSLV launch vehicle from the Sirharikota (SRI). Payload-class satellites include a variety of spacecraft equipped with specific instruments for various scientific and technological missions. These include communications satellites like Starlink; space stations such as the ISS; scientific satellites like the Hubble; Earth observation satellites from companies like Planet Labs, Umbra, and HawkEye 360; GPS; miniature CubeSats for education and research; and military/defense satellites.

Loading next visibility...
Identifier
40054, 2014-034B
Orbit
SSO
Last TLE update
4 hours ago
Origin
Manufacturer
DLR-ISS
Mission
Non-operational Civil Communications
Bus & Motor
CLAVIS, Unknown motor
Mass
10 kg wet, 10 kg dry
Launch date (UTC)
2014-06-30 (11 years ago)
Launch vehicle
PSLV
Launch site
Sirharikota (SRI)
Object type
Payload
Rocket body
Debris
Shape & HBR
Box + 1 Truss, 4 m
Radar Cross Section
0.040 m², Medium (>0.1 m² and < 1m²)

Expand to show TLE details & history

TLE from 4 hours ago
0 AISAT
1 40054U 14034B   25129.54295988  .00008745  00000-0  71797-3 0  9992
2 40054  98.2927   9.9076 0011395 121.3723 238.8615 14.99414789586548
Epoch: 2025-05-09T13:01Z
Definitive object data (Epoch: 2025-05-09T13:01:51.733Z)
Latitude
-0°
Longitude
-53.15555°
Altitude
575.84 km
Speed
7.571 km/s
True Right ascension
00h 39m 37s
True Declination
0° 00' 00"
Sunlit
Object was in daylight at TLE epoch
Visualization TLE readout
Latitude
78.59783°
Longitude
-98.95057°
Altitude
575.729 km
Speed
7.583 km/s
Apparent Right ascension
13h 43m 54s
Apparent Declination
33° 37' 50"
Sunlit
Object is in daylight
Visualization observer readout
Local Sidereal Time
00:46:25
Azimuth
347.63° N
Elevation
-15.263°
Doppler factor
1
Orbital elements
Apogee altitude
573.649 km
Perigee altitude
557.824 km
Semi-major axis
6,943.873 km
Eccentricity
0.0011395
Inclination
98.2927°
RAAN
9.9076°
Arg. of periapsis
121.3723°
True anomaly
238.74982°
Mean anomaly
238.8615°
Eccentric anomaly
238.80565°
Mean motion
3.75094 °/min
BSTAR
0.00071797
Orbital period
95.98 mins
Loading maneuver chart data...
Loading SW <> Apogee altitude chart data...
Loading historical data...
Loading historical data...
Loading historical data...
Loading historical data...
Loading historical data...
Loading historical data...
Loading historical data...
Other satellites on launch #34 in the year 2014 (2014-06-30 UTC)

AISAT Visibility forecast

Observer location: undefined°, undefined°

Span
Click to sort rows by Start time (UTC) header in descending order
Start Az.
Max El. time (UTC)
Max El. Az.
Max El.
End time (UTC)
End Az.
5 mins2025-05-10 04:01:55.258Z52.436° ENE2025-05-10 04:03:55.258Z85.896° E18.775°2025-05-10 04:06:55.258Z139.505° SSE
4 mins2025-05-10 05:37:55.258Z326.218° NNW2025-05-10 05:38:55.258Z303.28° NW24.723°2025-05-10 05:41:55.258Z239.019° WSW
5 mins2025-05-10 16:23:55.258Z199.536° SSW2025-05-10 16:25:55.258Z256.235° W35.18°2025-05-10 16:28:55.258Z328.513° NNW
|